Temp_Advection
nan nan nan nan nan nan nan nan nan nan nan nan nan nan nan nan nan nan nan nan nan nan nan nan nan nan nan nan nan nan nan nan nan
nan 0 -0 -0 -0 0 -0 -0 0 0 0 -0 -0 -0 -0 -0 -0 -1 -0 -0 -0 0 -0 -0 0 0 -0 -0 0 0 0 0 nan
nan 0 0 0 -0 -0 -0 -0 -0 0 0 0 -0 -0 -0 -0 -0 -0 -0 0 -0 -0 -0 -0 -0 0 0 -0 -0 0 1 0 nan
nan 0 0 0 0 -0 0 0 -0 -0 0 0 0 -0 -0 -0 -0 -1 -0 0 -0 -0 0 0 -0 -0 -0 0 -0 -0 0 0 nan
nan -0 0 0 0 0 0 0 0 -0 0 0 0 0 -0 -0 -0 -1 -1 -0 -0 -0 0 0 -0 -0 -0 -0 -0 -0 0 0 nan
nan 0 0 0 0 0 0 0 0 0 -0 0 0 0 0 -0 -0 -0 -1 -1 -0 -0 -0 0 -0 -0 -0 -0 -0 -0 -0 -0 nan
nan 1 0 0 0 0 0 0 0 0 -0 -0 0 0 0 0 0 0 -0 -0 -0 -0 -0 -0 -0 -0 -0 -0 -0 -0 -0 -0 nan
nan 0 0 0 0 -0 0 0 0 -0 0 0 -0 -0 0 0 0 0 0 -0 -0 -0 -0 -0 -0 -0 -0 -0 -0 -0 -0 -0 nan
nan 0 0 -0 -0 -0 -0 -0 -0 -0 0 0 0 -0 -0 0 0 0 0 0 -0 0 -0 -0 -0 0 -0 -0 -0 -0 -0 -0 nan
nan 0 -0 -0 -0 0 -0 -0 -0 -0 0 0 0 0 0 -0 0 0 0 0 0 0 0 0 0 0 -0 -0 -0 -0 -0 -0 nan
nan 0 -0 -0 0 0 0 0 0 0 0 0 0 0 0 -0 0 0 0 0 0 0 0 0 0 -0 0 0 0 0 -0 -0 nan
nan -0 0 -0 1 0 0 0 0 0 0 0 0 0 0 0 0 0 0 0 0 0 0 0 0 0 0 0 0 0 0 -0 nan
nan 0 -0 0 0 0 0 -0 -0 0 0 0 0 0 0 0 0 0 -0 0 0 0 0 0 0 0 0 0 0 0 -0 -0 nan
nan 0 0 0 0 0 0 -0 -0 0 0 0 0 0 0 0 0 0 0 0 0 0 0 0 0 0 0 0 0 -0 -0 0 nan
nan 0 -0 0 -0 0 0 -0 0 0 0 1 1 0 0 0 -0 0 0 0 0 0 0 0 0 0 0 0 0 0 0 0 nan
nan -0 0 0 -1 0 0 1 0 0 1 1 0 0 0 0 -0 0 -0 0 0 0 0 0 0 0 0 0 0 0 0 0 nan
nan 1 1 -0 -0 -0 -0 1 0 -0 1 1 0 0 -0 -0 -0 -0 -0 0 0 0 0 -0 -0 -0 0 0 0 0 0 0 nan
nan 0 -0 -0 -0 -1 0 1 -0 0 1 1 0 -0 -1 -1 -0 -0 -0 0 -0 0 0 -0 -0 -0 0 0 0 0 0 0 nan
nan 0 0 0 0 -0 -0 1 1 1 1 1 -1 -1 -0 -0 -1 -1 -0 -0 -0 0 -0 -0 -0 0 0 0 0 0 0 0 nan
nan nan nan nan nan nan nan nan nan nan nan nan nan nan nan nan nan nan nan nan nan nan nan nan nan nan nan nan nan nan nan nan nan
Wind_Speed
10 12 13 15 17 17 15 13 11 11 9 7 6 7 9 11 13 13 15 16 14 16 13 10 15 15 12 14 13 14 16 17 17
13 13 13 18 19 18 16 13 12 11 9 7 7 8 8 10 13 13 15 14 11 12 14 10 12 14 12 13 13 14 15 16 16
15 14 15 17 19 18 16 13 12 11 8 7 8 9 9 11 12 13 13 12 11 12 12 12 11 12 12 11 13 13 15 15 16
16 15 17 17 20 18 15 14 13 10 9 7 8 10 10 10 10 12 13 9 9 10 12 11 11 11 12 11 13 13 14 14 14
16 16 18 18 20 18 15 14 14 11 9 8 9 10 11 10 9 11 12 10 8 8 9 10 11 11 11 11 11 12 12 12 13
20 19 19 20 19 19 16 15 15 13 10 9 9 11 12 11 10 9 10 10 8 8 8 8 9 9 9 9 10 10 10 10 11
22 21 20 21 20 19 18 16 16 14 13 12 11 12 12 12 10 8 8 10 9 8 7 7 7 7 7 8 8 8 8 7 8
23 23 22 23 22 21 21 19 19 16 15 14 13 13 13 12 11 9 9 10 10 8 7 6 5 5 5 5 6 6 6 6 6
27 27 26 26 26 25 23 21 21 18 16 15 14 14 14 13 11 10 9 10 10 8 7 6 4 3 4 3 3 4 4 4 4
30 30 30 29 28 28 25 24 23 21 19 17 15 16 14 13 13 11 11 11 10 9 7 5 4 2 1 0 1 2 3 3 4
34 33 33 32 31 31 28 26 25 23 21 20 18 16 14 14 14 13 12 12 11 10 8 7 5 3 2 3 3 4 4 5 5
35 36 36 36 34 32 31 29 27 26 24 22 20 18 16 14 15 15 14 13 12 11 10 8 6 6 5 5 5 6 6 6 7
36 37 39 39 37 35 34 32 31 29 27 25 23 21 18 16 16 16 16 15 13 12 11 9 9 8 8 7 7 8 10 8 7
33 37 38 42 41 38 38 35 34 32 30 27 24 22 20 17 16 17 17 16 15 14 13 12 10 10 9 8 8 8 10 12 13
33 35 34 39 45 42 42 39 37 34 31 30 27 23 22 20 19 18 18 18 17 15 14 13 11 11 10 9 9 9 9 10 12
36 32 34 41 47 49 44 43 40 38 34 33 29 27 24 24 22 21 21 20 18 18 16 15 13 13 12 11 11 12 12 13 13
38 38 37 44 43 45 46 49 44 41 39 39 33 24 28 29 27 26 24 23 21 19 18 17 16 16 15 14 14 14 14 15 13
38 38 35 39 47 47 48 48 48 46 40 42 26 18 15 29 32 30 28 26 24 22 21 19 19 18 17 15 15 15 15 14 13
34 38 42 36 43 53 42 48 52 49 46 47 44 25 19 18 18 33 32 29 28 26 24 22 21 19 17 15 15 15 13 13 12
32 36 37 41 43 52 49 51 52 49 50 51 51 42 30 24 21 20 32 34 32 29 27 24 22 20 18 16 16 14 13 12 11
Wind_Direction
178 166 162 164 164 166 168 162 158 153 153 148 139 129 119 116 118 110 117 120 111 107 108 113 101 97 90 94 86 88 81 79 76
182 175 175 165 169 171 171 166 166 159 157 155 146 138 127 125 129 119 112 110 122 112 109 105 95 96 101 89 90 80 81 76 78
182 181 179 172 175 179 181 172 172 166 165 160 154 145 138 137 135 132 117 124 123 113 121 109 109 99 98 90 93 88 84 76 73
194 188 185 179 184 185 185 181 179 176 173 171 163 151 145 143 145 130 124 140 131 128 114 105 101 100 93 92 89 85 81 74 71
204 195 194 192 191 193 194 191 186 182 186 180 169 159 152 150 149 143 136 141 126 126 114 101 99 98 97 93 89 87 79 71 67
211 206 205 202 202 199 198 196 193 187 190 182 173 166 159 155 154 147 141 142 128 125 118 111 105 104 99 93 89 84 80 72 65
215 213 209 208 206 205 207 205 199 197 194 186 179 175 169 165 164 159 150 144 139 136 130 120 113 108 100 90 86 82 77 70 63
221 216 212 210 208 207 212 211 206 204 204 193 186 184 179 175 174 168 165 155 155 153 146 136 124 113 101 89 81 74 67 59 53
223 219 217 213 214 212 215 218 214 210 208 201 193 187 187 186 183 180 178 173 171 170 164 159 155 130 103 80 65 58 51 44 31
225 223 222 219 218 217 218 214 217 216 210 201 199 191 191 195 194 191 189 187 187 187 186 186 193 176 132 64 354 351 2 351 348
228 227 225 223 222 219 220 217 217 219 213 206 202 199 199 199 201 200 198 199 199 201 204 210 223 230 243 266 293 302 311 311 315
231 227 228 227 222 221 221 216 218 220 214 209 206 206 205 204 206 206 205 206 208 212 216 223 234 246 258 272 278 287 291 299 306
231 231 228 231 225 222 222 217 217 218 216 211 207 207 211 210 210 209 210 211 214 218 225 231 238 247 258 269 277 291 318 322 306
228 233 233 233 229 224 222 219 218 218 216 212 212 211 212 215 215 214 214 215 219 223 229 233 239 246 252 263 272 274 278 289 295
220 228 232 235 226 226 221 221 219 219 218 213 215 214 216 217 220 218 218 220 221 225 230 233 234 240 247 261 270 269 267 278 285
221 223 228 233 234 228 223 219 219 217 214 215 215 219 219 222 222 221 220 221 222 227 229 230 233 238 250 261 273 283 283 281 283
225 221 223 231 236 234 226 216 215 218 214 210 213 217 222 224 223 223 223 223 224 227 231 234 237 241 253 264 279 288 288 282 283
225 223 222 224 222 232 232 222 216 216 214 216 203 206 215 222 226 225 225 225 227 231 235 238 241 245 254 264 275 290 290 283 280
227 226 224 226 222 227 230 224 219 217 216 214 214 215 215 204 221 226 227 227 230 233 237 239 242 245 252 261 276 290 287 279 272
233 228 222 228 228 228 238 229 217 219 222 219 215 216 220 220 221 216 223 227 231 234 236 239 241 243 250 262 276 281 278 270 273
Height
1558 1560 1561 1563 1565 1567 1569 1571 1571 1572 1574 1575 1576 1576 1577 1578 1578 1579 1580 1581 1581 1582 1582 1580 1581 1581 1581 1580 1579 1579 1578 1577 1576
1558 1560 1561 1563 1565 1567 1569 1571 1572 1573 1574 1575 1576 1578 1578 1579 1580 1581 1582 1583 1583 1582 1583 1582 1583 1582 1582 1582 1582 1581 1580 1579 1579
1559 1560 1561 1563 1565 1567 1568 1570 1572 1574 1575 1576 1576 1578 1579 1580 1581 1582 1584 1586 1586 1584 1584 1583 1584 1584 1583 1583 1583 1583 1581 1581 1580
1559 1560 1562 1563 1565 1567 1568 1570 1572 1574 1575 1576 1577 1578 1579 1581 1582 1583 1585 1586 1587 1586 1585 1585 1585 1585 1585 1585 1584 1584 1584 1583 1582
1559 1561 1562 1563 1564 1566 1569 1570 1572 1573 1575 1576 1577 1578 1579 1581 1582 1583 1584 1586 1587 1587 1587 1587 1586 1587 1586 1586 1586 1585 1585 1585 1585
1557 1559 1561 1563 1565 1567 1568 1570 1572 1573 1574 1576 1577 1578 1579 1580 1582 1583 1584 1585 1587 1588 1588 1588 1588 1588 1588 1587 1587 1587 1587 1586 1586
1556 1558 1560 1562 1564 1567 1569 1570 1572 1573 1573 1575 1577 1578 1579 1580 1581 1583 1583 1585 1586 1588 1589 1589 1589 1589 1589 1588 1588 1588 1588 1587 1586
1554 1557 1559 1561 1563 1565 1568 1569 1570 1572 1573 1573 1575 1577 1579 1580 1581 1582 1584 1585 1586 1587 1588 1589 1590 1590 1590 1589 1589 1588 1588 1587 1586
1551 1554 1556 1558 1560 1562 1565 1568 1570 1571 1572 1573 1574 1575 1578 1579 1580 1582 1583 1584 1585 1587 1588 1588 1589 1590 1590 1590 1589 1588 1588 1587 1586
1547 1550 1553 1555 1557 1559 1561 1564 1567 1569 1571 1572 1573 1574 1576 1578 1580 1581 1582 1584 1585 1586 1587 1588 1588 1589 1589 1589 1588 1588 1587 1587 1586
1541 1545 1548 1551 1553 1555 1558 1561 1564 1566 1569 1571 1572 1574 1575 1576 1578 1579 1581 1582 1584 1585 1586 1587 1588 1588 1588 1588 1587 1586 1586 1585 1585
1536 1539 1543 1546 1550 1554 1555 1558 1561 1563 1566 1568 1570 1572 1573 1574 1576 1577 1579 1581 1582 1583 1584 1585 1586 1586 1586 1585 1585 1585 1584 1584 1583
1530 1532 1536 1539 1545 1546 1554 1553 1556 1559 1562 1565 1567 1568 1571 1572 1574 1575 1577 1578 1580 1581 1582 1583 1583 1584 1584 1583 1582 1583 1582 1582 1581
1522 1526 1529 1534 1537 1540 1548 1548 1552 1554 1557 1562 1565 1566 1567 1570 1571 1573 1574 1575 1577 1578 1579 1580 1581 1581 1581 1581 1581 1581 1580 1580 1579
1516 1519 1522 1525 1529 1534 1540 1543 1547 1550 1554 1558 1562 1563 1564 1566 1568 1569 1571 1572 1573 1575 1575 1577 1578 1578 1578 1578 1578 1578 1578 1578 1577
1509 1512 1516 1518 1520 1525 1531 1536 1542 1544 1548 1554 1557 1560 1560 1561 1563 1565 1566 1568 1569 1571 1572 1573 1574 1575 1575 1575 1575 1575 1575 1574 1573
1500 1503 1507 1511 1515 1518 1524 1526 1534 1538 1542 1546 1552 1555 1556 1555 1557 1559 1561 1563 1565 1567 1568 1569 1570 1571 1571 1572 1572 1572 1571 1571 1570
1490 1495 1500 1503 1505 1508 1513 1519 1524 1529 1537 1542 1544 1549 1546 1549 1551 1553 1556 1559 1561 1562 1564 1565 1566 1567 1568 1569 1569 1568 1568 1567 1566
1482 1487 1492 1495 1499 1499 1505 1512 1516 1521 1524 1535 1538 1540 1540 1542 1545 1546 1550 1553 1555 1557 1559 1561 1562 1563 1564 1565 1565 1564 1564 1563 1563
1474 1478 1483 1487 1491 1493 1496 1502 1507 1512 1519 1521 1529 1533 1535 1537 1539 1538 1543 1546 1549 1551 1553 1556 1558 1559 1560 1561 1561 1560 1560 1559 1559